This is the latest recevied weather packets stored in our database for station/object KB3AWQ. If no packets are shown the sender has not sent any weather packets the latest 10 day(s).
| Time | Temp. | Humidity | Pressure | Rain* | Wind** | Luminosity | Snow |
|---|---|---|---|---|---|---|---|
| 1787951966 | 26.67° C | 59% | 1018.3 hPa | 0 mm | - | 106 W/m² | - |
| 1787951666 | 26.67° C | 61% | 1018.3 hPa | 0 mm | - | 126 W/m² | - |
| 1787951367 | 26.67° C | 60% | 1018.3 hPa | 0 mm | - | 125 W/m² | - |
| 1787951066 | 26.67° C | 59% | 1018.3 hPa | 0 mm | - | 89 W/m² | - |
| 1787950766 | 26.67° C | 59% | 1018.3 hPa | 0 mm | - | 82 W/m² | - |
| 1787950466 | 26.67° C | 59% | 1018.3 hPa | 0 mm | - | 84 W/m² | - |
| 1787950166 | 27.22° C | 59% | 1018.2 hPa | 0 mm | - | 118 W/m² | - |
| 1787949869 | 27.22° C | 60% | 1018.2 hPa | 0 mm | - | 99 W/m² | - |
| 1787949567 | 27.22° C | 60% | 1018.1 hPa | 0 mm | - | 103 W/m² | - |
| 1787949267 | 27.78° C | 58% | 1018.1 hPa | 0 mm | - | 164 W/m² | - |
| 1787948968 | 27.78° C | 54% | 1018.2 hPa | 0 mm | - | 100 W/m² | - |
| 1787948666 | 27.78° C | 56% | 1018.2 hPa | 0 mm | - | 190 W/m² | - |
| 1787948367 | 27.78° C | 57% | 1018.2 hPa | 0 mm | - | 527 W/m² | - |
| 1787948066 | 27.78° C | 56% | 1018.2 hPa | 0 mm | - | 566 W/m² | - |
| 1787947767 | 27.22° C | 60% | 1018.2 hPa | 0 mm | - | 627 W/m² | - |
| 1787947466 | 27.22° C | 61% | 1018.2 hPa | 0 mm | - | 381 W/m² | - |
| 1787947166 | 27.78° C | 60% | 1018.2 hPa | 0 mm | - | 234 W/m² | - |
| 1787946866 | 27.78° C | 59% | 1018.2 hPa | 0 mm | - | 644 W/m² | - |
| 1787946566 | 28.33° C | 58% | 1018.2 hPa | 0 mm | - | 235 W/m² | - |
| 1787946266 | 28.89° C | 57% | 1018.2 hPa | 0 mm | - | 662 W/m² | - |
| 1787945966 | 28.89° C | 55% | 1018.3 hPa | 0 mm | - | 290 W/m² | - |
| 1787945667 | 28.33° C | 57% | 1018.3 hPa | 0 mm | - | 707 W/m² | - |
| 1787945367 | 28.33° C | 58% | 1018.2 hPa | 0 mm | - | 707 W/m² | - |
| 1787945067 | 28.33° C | 58% | 1018.3 hPa | 0 mm | - | 158 W/m² | - |
| 1787944766 | 28.33° C | 59% | 1018.3 hPa | 0 mm | - | 705 W/m² | - |
* Rain latest hour (hover to see other rain measurements)
** Current wind speed in m/s (hover to see current wind gust speed)